Location: Winnipeg
(49.8830°N, 97.1670°W)
Time: 04:12:27
(UTC-06:00)

ISS - Pass Details

Date: 28 January 2021
Orbit: 417 x 422 km, 51.6° (Epoch: 07 March)

Event Time Altitude Azimuth Distance (km) Brightness Sun altitude
Rises 17:57:12 0° 266° (W) 2,370 1.9 -6.7°
Reaches altitude 10° 17:59:18 10° 269° (W) 1,507 0.5 -7.0°
Maximum altitude 18:02:40 67° 352° (N) 463 -3.6 -7.5°
Enters shadow 18:05:56 11° 76° (ENE) 1,460 -1.7 -8.0°
